Minneapolis, MN

4:07 PM CST on December 15, 2017 (GMT -0600)
Minneapolis-Saint Paul International

Weather History for KMSP - January, 2013

Change the Weather History Date:

Saturday, January 26, 2013

  Actual Average Record
Temperature  
Mean Temperature 13 °F 16 °F  
Max Temperature 23 °F 24 °F 52 °F (1931)
Min Temperature 2 °F 8 °F -26 °F (1897)
Degree Days  
Heating Degree Days 52 49  
Month to date heating degree days 1260 1289  
Since 1 July heating degree days 4032 4312  
Cooling Degree Days 0 0  
Month to date cooling degree days 0 0  
Year to date cooling degree days 0 0  
Moisture  
Dew Point 4 °F    
Average Humidity 69    
Maximum Humidity 87    
Minimum Humidity 51    
Precipitation  
Precipitation 0.00 in 0.03 in 0.37 in (1910)
Month to date precipitation 0.34 0.77  
Year to date precipitation 0.34 0.77  
Snow  
Snow 0.00 in 0.40 in 3.30 in (1910)
Month to date snowfall 1.6 10.4  
Since 1 July snowfall 17.4 32.2  
Snow Depth 0.00 in    
Sea Level Pressure  
Sea Level Pressure 30.30 in    
Wind  
Wind Speed 7 mph (SE)    
Max Wind Speed 15 mph    
Max Gust Speed 18 mph    
Visibility 10 miles    
Events      
T = Trace of Precipitation, MM = Missing Value Source: NWS Daily Summary

Daily Weather History Graph

Daily Weather History Graph

Search for Another Location

Airport or City:

Trip Planner

Search our weather history database for the weather conditions in past years. The results will help you decide how hot, cold, wet, or windy it might be!

Date:

Astronomy

Jan. 26, 2013 Rise Set
Actual Time 7:38 AM CST 5:13 PM CST
Civil Twilight 7:06 AM CST 5:44 PM CST
Nautical Twilight 6:31 AM CST 6:20 PM CST
Astronomical Twilight 5:56 AM CST 6:54 PM CST
Moon 5:10 PM CST (1/26) 6:55 AM CST (1/26)
Length of Visible Light 10h 38m
Length of Day
9h 34m
Full, 100% of the Moon is Illuminated
Jan 26
Full
Jan 26
Full
Feb 3
Last Quarter
Feb 10
New
Feb 17
First Quarter

Hourly Weather History & Observations

Time (CST) Temp. Windchill Dew Point Humidity Pressure Visibility Wind Dir Wind Speed Gust Speed Precip Events Conditions
12:53 AM 4.1 °F -5.1 °F -2.9 °F 73% 30.38 in 10.0 mi NNW 4.6 mph - N/A   Clear
1:53 AM 3.0 °F -6.4 °F -2.9 °F 76% 30.37 in 10.0 mi NNW 4.6 mph - N/A   Scattered Clouds
2:53 AM 3.0 °F - -2.0 °F 80% 30.37 in 10.0 mi Calm Calm - N/A   Scattered Clouds
3:53 AM 3.0 °F - -2.0 °F 80% 30.37 in 10.0 mi Calm Calm - N/A   Partly Cloudy
4:53 AM 3.0 °F -4.4 °F -2.9 °F 76% 30.37 in 10.0 mi West 3.5 mph - N/A   Partly Cloudy
5:53 AM 1.9 °F - -2.0 °F 83% 30.38 in 10.0 mi Calm Calm - N/A   Partly Cloudy
6:53 AM 6.1 °F - -2.0 °F 69% 30.38 in 10.0 mi Calm Calm - N/A   Scattered Clouds
7:53 AM 7.0 °F - -0.9 °F 70% 30.40 in 10.0 mi Calm Calm - N/A   Mostly Cloudy
8:53 AM 6.8 °F -0.1 °F 1.0 °F 77% 30.40 in 10.0 mi ESE 3.5 mph - N/A   Scattered Clouds
9:53 AM 10.0 °F 0.4 °F 1.0 °F 67% 30.40 in 10.0 mi SE 5.8 mph - N/A   Mostly Cloudy
10:53 AM 10.9 °F 0.2 °F 1.0 °F 64% 30.40 in 10.0 mi SSE 6.9 mph - N/A   Overcast
11:53 AM 14.0 °F 2.9 °F 3.0 °F 62% 30.35 in 10.0 mi SE 8.1 mph - N/A   Mostly Cloudy
12:53 PM 18.0 °F 6.9 °F 3.9 °F 54% 30.33 in 10.0 mi South 9.2 mph - N/A   Mostly Cloudy
1:53 PM 19.0 °F 6.8 °F 5.0 °F 54% 30.29 in 10.0 mi SE 11.5 mph - N/A   Mostly Cloudy
2:53 PM 21.9 °F 11.0 °F 6.1 °F 51% 30.27 in 10.0 mi SE 10.4 mph - N/A   Mostly Cloudy
3:53 PM 21.9 °F 9.8 °F 7.0 °F 53% 30.26 in 10.0 mi ESE 12.7 mph - N/A   Overcast
4:53 PM 23.0 °F 10.1 °F 8.1 °F 53% 30.23 in 10.0 mi ESE 15.0 mph - N/A   Overcast
5:53 PM 21.9 °F 10.4 °F 9.0 °F 58% 30.21 in 10.0 mi SE 11.5 mph - N/A   Overcast
6:53 PM 23.0 °F 11.7 °F 9.0 °F 55% 30.20 in 10.0 mi SE 11.5 mph - N/A   Overcast
7:53 PM 23.0 °F 13.1 °F 10.0 °F 58% 30.21 in 10.0 mi SE 9.2 mph - N/A   Overcast
8:53 PM 23.0 °F 13.1 °F 10.0 °F 58% 30.20 in 10.0 mi SE 9.2 mph - N/A   Overcast
9:53 PM 23.0 °F 12.4 °F 10.9 °F 60% 30.18 in 10.0 mi SE 10.4 mph - N/A   Overcast
10:53 PM 23.0 °F 13.1 °F 10.9 °F 60% 30.17 in 10.0 mi SE 9.2 mph - N/A   Overcast
11:53 PM 23.0 °F 13.1 °F 10.9 °F 60% 30.17 in 10.0 mi SE 9.2 mph - N/A   Mostly Cloudy